Time,TemperatureF,DewpointF,PressureIn,WindDirection,WindDirectionDegrees,WindSpeedMPH,WindSpeedGustMPH,Humidity,HourlyPrecipIn,Conditions,Clouds,dailyrainin,SoftwareType,DateUTC
2013-10-16 00:03:00,36.3,28.8,30.35,NW,315,4.2,4.2,74,0.00,,,0.00,WUHU21636XXSP,2013-10-16 05:03:00,
2013-10-16 00:13:00,35.8,28.2,30.34,NW,315,1.1,4.2,74,0.00,,,0.00,WUHU21636XXSP,2013-10-16 05:13:00,
2013-10-16 00:23:00,35.2,28.0,30.35,NW,315,0.0,1.1,75,0.00,,,0.00,WUHU21636XXSP,2013-10-16 05:23:00,
2013-10-16 00:33:00,35.2,28.0,30.35,NW,315,0.0,0.0,75,0.00,,,0.00,WUHU21636XXSP,2013-10-16 05:33:00,
2013-10-16 00:43:00,35.4,28.4,30.34,NW,315,0.0,0.6,76,0.00,,,0.00,WUHU21636XXSP,2013-10-16 05:43:00,
2013-10-16 00:53:00,35.4,28.4,30.34,NW,315,0.0,0.0,75,0.00,,,0.00,WUHU21636XXSP,2013-10-16 05:53:00,
2013-10-16 01:03:00,35.6,28.4,30.34,NW,315,0.0,0.0,75,0.00,,,0.00,WUHU21636XXSP,2013-10-16 06:03:00,
2013-10-16 01:13:00,35.2,28.0,30.35,NW,315,0.0,1.7,75,0.00,,,0.00,WUHU21636XXSP,2013-10-16 06:13:00,
2013-10-16 01:23:00,34.9,27.7,30.35,NW,315,1.5,1.5,76,0.00,,,0.00,WUHU21636XXSP,2013-10-16 06:23:00,
2013-10-16 01:33:00,34.5,27.9,30.35,NW,315,2.0,2.0,77,0.00,,,0.00,WUHU21636XXSP,2013-10-16 06:33:00,
2013-10-16 01:43:00,33.6,28.0,30.35,NW,315,3.5,3.5,80,0.00,,,0.00,WUHU21636XXSP,2013-10-16 06:43:00,
2013-10-16 01:53:00,33.4,27.9,30.34,NW,315,0.4,3.5,80,0.00,,,0.00,WUHU21636XXSP,2013-10-16 06:53:00,
2013-10-16 02:03:00,33.6,28.0,30.34,NW,315,0.0,0.4,79,0.00,,,0.00,WUHU21636XXSP,2013-10-16 07:03:00,
2013-10-16 02:13:00,34.5,28.6,30.33,NW,315,0.0,0.0,79,0.00,,,0.00,WUHU21636XXSP,2013-10-16 07:13:00,
2013-10-16 02:23:00,34.5,28.6,30.33,NW,315,3.5,3.5,79,0.00,,,0.00,WUHU21636XXSP,2013-10-16 07:23:00,
2013-10-16 02:33:00,34.5,28.6,30.33,NW,315,2.9,4.6,79,0.00,,,0.00,WUHU21636XXSP,2013-10-16 07:33:00,
2013-10-16 02:43:00,34.2,28.2,30.32,NNW,337,0.0,4.4,79,0.00,,,0.00,WUHU21636XXSP,2013-10-16 07:43:00,
2013-10-16 02:53:00,34.0,28.0,30.32,NW,315,2.4,8.7,79,0.00,,,0.00,WUHU21636XXSP,2013-10-16 07:53:00,
2013-10-16 03:03:00,33.6,27.7,30.31,NNW,337,3.1,4.9,79,0.00,,,0.00,WUHU21636XXSP,2013-10-16 08:03:00,
2013-10-16 03:13:00,33.4,27.5,30.32,NW,315,0.8,10.0,79,0.00,,,0.00,WUHU21636XXSP,2013-10-16 08:13:00,
2013-10-16 03:23:00,33.1,27.1,30.32,NW,315,3.8,7.3,79,0.00,,,0.00,WUHU21636XXSP,2013-10-16 08:23:00,
2013-10-16 03:33:00,32.9,27.0,30.31,NW,315,4.2,4.2,79,0.00,,,0.00,WUHU21636XXSP,2013-10-16 08:33:00,
2013-10-16 03:43:00,32.5,27.0,30.30,NNW,337,3.5,9.1,80,0.00,,,0.00,WUHU21636XXSP,2013-10-16 08:43:00,
2013-10-16 03:53:00,32.4,26.8,30.30,NNW,337,0.6,9.3,80,0.00,,,0.00,WUHU21636XXSP,2013-10-16 08:53:00,
2013-10-16 04:03:00,32.2,26.6,30.31,NW,315,1.3,4.2,80,0.00,,,0.00,WUHU21636XXSP,2013-10-16 09:03:00,
2013-10-16 04:13:00,31.6,26.2,30.31,NW,315,2.0,2.0,80,0.00,,,0.00,WUHU21636XXSP,2013-10-16 09:13:00,
2013-10-16 04:23:00,31.6,26.2,30.31,NW,315,0.0,2.4,80,0.00,,,0.00,WUHU21636XXSP,2013-10-16 09:23:00,
2013-10-16 04:33:00,31.3,25.9,30.31,NW,315,0.0,0.0,80,0.00,,,0.00,WUHU21636XXSP,2013-10-16 09:33:00,
2013-10-16 04:43:00,31.1,25.7,30.31,NW,315,2.6,2.6,80,0.00,,,0.00,WUHU21636XXSP,2013-10-16 09:43:00,
2013-10-16 04:53:00,30.9,25.5,30.32,WNW,292,0.0,2.6,81,0.00,,,0.00,WUHU21636XXSP,2013-10-16 09:53:00,
2013-10-16 05:03:00,30.9,25.5,30.32,WNW,292,0.0,0.6,81,0.00,,,0.00,WUHU21636XXSP,2013-10-16 10:03:00,
2013-10-16 05:13:00,30.9,25.5,30.32,WNW,292,0.0,0.0,81,0.00,,,0.00,WUHU21636XXSP,2013-10-16 10:13:00,
2013-10-16 05:23:00,31.3,26.1,30.32,WNW,292,0.0,0.4,81,0.00,,,0.00,WUHU21636XXSP,2013-10-16 10:23:00,
2013-10-16 05:33:00,31.6,26.4,30.32,WNW,292,1.1,2.0,81,0.00,,,0.00,WUHU21636XXSP,2013-10-16 10:33:00,
2013-10-16 05:43:00,30.9,25.7,30.32,West,270,0.0,4.4,81,0.00,,,0.00,WUHU21636XXSP,2013-10-16 10:43:00,
2013-10-16 05:53:00,31.3,26.4,30.31,WNW,292,0.0,0.0,82,0.00,,,0.00,WUHU21636XXSP,2013-10-16 10:53:00,
2013-10-16 06:03:00,31.6,26.8,30.31,WNW,292,0.0,0.0,82,0.00,,,0.00,WUHU21636XXSP,2013-10-16 11:03:00,
2013-10-16 06:13:00,32.0,26.8,30.31,WNW,292,0.0,0.0,81,0.00,,,0.00,WUHU21636XXSP,2013-10-16 11:13:00,
2013-10-16 06:23:00,32.0,26.8,30.30,WNW,292,0.0,0.8,81,0.00,,,0.00,WUHU21636XXSP,2013-10-16 11:23:00,
2013-10-16 06:33:00,31.6,26.8,30.30,NNW,337,4.4,6.0,82,0.00,,,0.00,WUHU21636XXSP,2013-10-16 11:33:00,
2013-10-16 06:45:00,31.6,27.0,30.29,NNW,337,4.2,5.3,83,0.00,,,0.00,WUHU21636XXSP,2013-10-16 11:45:00,
2013-10-16 06:58:00,31.8,27.1,30.29,NW,315,8.2,14.0,83,0.00,,,0.00,WUHU21636XXSP,2013-10-16 11:58:00,
2013-10-16 07:10:00,31.8,27.1,30.28,NNW,337,4.4,13.8,83,0.00,,,0.00,WUHU21636XXSP,2013-10-16 12:10:00,
2013-10-16 07:22:00,31.6,27.0,30.28,North,0,5.1,5.1,83,0.00,,,0.00,WUHU21636XXSP,2013-10-16 12:22:00,
2013-10-16 07:35:00,31.6,26.8,30.28,NW,315,5.3,12.9,82,0.00,,,0.00,WUHU21636XXSP,2013-10-16 12:35:00,
2013-10-16 07:47:00,31.5,26.6,30.29,NW,315,4.6,9.8,82,0.00,,,0.00,WUHU21636XXSP,2013-10-16 12:47:00,
2013-10-16 07:59:00,31.3,26.4,30.29,NW,315,7.3,10.9,82,0.00,,,0.00,WUHU21636XXSP,2013-10-16 12:59:00,
2013-10-16 08:12:00,30.6,25.7,30.29,WNW,292,4.2,4.2,82,0.00,,,0.00,WUHU21636XXSP,2013-10-16 13:12:00,
2013-10-16 08:24:00,30.0,25.3,30.29,West,270,3.1,4.9,83,0.00,,,0.00,WUHU21636XXSP,2013-10-16 13:24:00,
2013-10-16 08:36:00,30.4,25.7,30.29,West,270,3.1,8.0,83,0.00,,,0.00,WUHU21636XXSP,2013-10-16 13:36:00,
2013-10-16 08:49:00,30.6,25.9,30.29,West,270,3.5,9.8,83,0.00,,,0.00,WUHU21636XXSP,2013-10-16 13:49:00,
2013-10-16 09:01:00,30.9,26.6,30.29,WNW,292,1.1,6.2,84,0.00,,,0.00,WUHU21636XXSP,2013-10-16 14:01:00,
2013-10-16 09:14:00,31.5,27.1,30.29,West,270,0.0,2.9,84,0.00,,,0.00,WUHU21636XXSP,2013-10-16 14:14:00,
2013-10-16 09:26:00,31.8,27.5,30.29,WNW,292,3.1,3.1,84,0.00,,,0.00,WUHU21636XXSP,2013-10-16 14:26:00,
2013-10-16 09:38:00,32.7,28.4,30.30,WNW,292,4.0,8.0,84,0.00,,,0.00,WUHU21636XXSP,2013-10-16 14:38:00,
2013-10-16 09:51:00,33.6,29.1,30.29,WNW,292,4.2,4.2,84,0.00,,,0.00,WUHU21636XXSP,2013-10-16 14:51:00,
2013-10-16 10:03:00,35.2,29.8,30.29,West,270,4.6,4.6,81,0.00,,,0.00,WUHU21636XXSP,2013-10-16 15:03:00,
2013-10-16 10:15:00,36.7,30.7,30.29,West,270,1.1,7.3,79,0.00,,,0.00,WUHU21636XXSP,2013-10-16 15:15:00,
2013-10-16 10:28:00,37.6,30.2,30.29,WNW,292,6.0,12.3,75,0.00,,,0.00,WUHU21636XXSP,2013-10-16 15:28:00,
2013-10-16 10:40:00,38.5,31.1,30.29,West,270,2.0,8.5,75,0.00,,,0.00,WUHU21636XXSP,2013-10-16 15:40:00,
2013-10-16 10:53:00,39.4,31.6,30.28,WNW,292,3.8,9.8,74,0.00,,,0.00,WUHU21636XXSP,2013-10-16 15:53:00,
2013-10-16 11:05:00,40.1,31.6,30.27,WNW,292,5.8,5.8,72,0.00,,,0.00,WUHU21636XXSP,2013-10-16 16:05:00,
2013-10-16 11:17:00,41.2,33.4,30.27,NW,315,0.0,3.5,74,0.00,,,0.00,WUHU21636XXSP,2013-10-16 16:17:00,
2013-10-16 11:30:00,42.1,33.6,30.27,West,270,1.3,4.6,72,0.00,,,0.00,WUHU21636XXSP,2013-10-16 16:30:00,
2013-10-16 11:42:00,43.9,34.7,30.27,West,270,5.8,8.7,70,0.00,,,0.00,WUHU21636XXSP,2013-10-16 16:42:00,
2013-10-16 11:54:00,44.4,34.0,30.27,NNW,337,2.9,8.9,67,0.00,,,0.00,WUHU21636XXSP,2013-10-16 16:54:00,
2013-10-16 12:07:00,45.7,34.5,30.27,WNW,292,2.6,5.1,65,0.00,,,0.00,WUHU21636XXSP,2013-10-16 17:07:00,
2013-10-16 12:19:00,46.6,34.9,30.26,West,270,4.4,4.4,64,0.00,,,0.00,WUHU21636XXSP,2013-10-16 17:19:00,
2013-10-16 12:32:00,47.5,34.7,30.26,WNW,292,2.2,11.8,61,0.00,,,0.00,WUHU21636XXSP,2013-10-16 17:32:00,
2013-10-16 12:44:00,48.4,35.1,30.25,WNW,292,3.1,10.2,60,0.00,,,0.00,WUHU21636XXSP,2013-10-16 17:44:00,
2013-10-16 12:56:00,49.1,34.9,30.24,NW,315,0.0,9.6,59,0.00,,,0.00,WUHU21636XXSP,2013-10-16 17:56:00,
2013-10-16 13:09:00,50.4,34.7,30.24,NNW,337,4.9,5.3,55,0.00,,,0.00,WUHU21636XXSP,2013-10-16 18:09:00,
2013-10-16 13:21:00,51.4,34.3,30.23,NNW,337,0.0,5.1,52,0.00,,,0.00,WUHU21636XXSP,2013-10-16 18:21:00,
2013-10-16 13:33:00,52.5,32.7,30.23,WNW,292,4.6,12.3,47,0.00,,,0.00,WUHU21636XXSP,2013-10-16 18:33:00,
2013-10-16 13:46:00,53.2,35.1,30.21,NNW,337,0.8,4.9,50,0.00,,,0.00,WUHU21636XXSP,2013-10-16 18:46:00,
2013-10-16 13:58:00,54.0,32.9,30.21,WNW,292,3.3,10.2,45,0.00,,,0.00,WUHU21636XXSP,2013-10-16 18:58:00,
2013-10-16 14:10:00,55.0,34.9,30.20,NW,315,0.0,10.0,47,0.00,,,0.00,WUHU21636XXSP,2013-10-16 19:10:00,
2013-10-16 14:23:00,55.8,35.1,30.19,NNW,337,6.9,13.1,46,0.00,,,0.00,WUHU21636XXSP,2013-10-16 19:23:00,
2013-10-16 14:35:00,56.5,35.8,30.19,NW,315,0.6,3.1,46,0.00,,,0.00,WUHU21636XXSP,2013-10-16 19:35:00,
2013-10-16 14:48:00,57.2,34.7,30.18,WNW,292,2.9,8.7,43,0.00,,,0.00,WUHU21636XXSP,2013-10-16 19:48:00,
2013-10-16 15:00:00,57.9,36.0,30.18,NW,315,3.5,3.5,44,0.00,,,0.00,WUHU21636XXSP,2013-10-16 20:00:00,
2013-10-16 15:12:00,58.6,34.9,30.17,West,270,1.3,10.0,41,0.00,,,0.00,WUHU21636XXSP,2013-10-16 20:12:00,
2013-10-16 15:25:00,59.2,36.5,30.16,NNE,22,2.6,5.1,43,0.00,,,0.00,WUHU21636XXSP,2013-10-16 20:25:00,
2013-10-16 15:37:00,59.7,34.5,30.16,WNW,292,4.4,7.3,39,0.00,,,0.00,WUHU21636XXSP,2013-10-16 20:37:00,
2013-10-16 15:49:00,59.5,33.6,30.16,WNW,292,4.4,11.4,38,0.00,,,0.00,WUHU21636XXSP,2013-10-16 20:49:00,
2013-10-16 16:02:00,59.7,33.8,30.16,WNW,292,3.3,7.6,38,0.00,,,0.00,WUHU21636XXSP,2013-10-16 21:02:00,
2013-10-16 16:14:00,59.9,34.7,30.15,NNW,337,1.1,11.1,39,0.00,,,0.00,WUHU21636XXSP,2013-10-16 21:14:00,
2013-10-16 16:27:00,60.1,34.2,30.15,West,270,4.4,15.6,38,0.00,,,0.00,WUHU21636XXSP,2013-10-16 21:27:00,
2013-10-16 16:39:00,60.4,33.8,30.14,West,270,1.7,7.8,37,0.00,,,0.00,WUHU21636XXSP,2013-10-16 21:39:00,
2013-10-16 16:51:00,60.1,33.4,30.14,West,270,2.6,10.9,38,0.00,,,0.00,WUHU21636XXSP,2013-10-16 21:51:00,
2013-10-16 17:04:00,59.9,31.8,30.14,West,270,4.0,4.0,35,0.00,,,0.00,WUHU21636XXSP,2013-10-16 22:04:00,
2013-10-16 17:16:00,60.6,35.4,30.13,WNW,292,0.8,4.9,39,0.00,,,0.00,WUHU21636XXSP,2013-10-16 22:16:00,
2013-10-16 17:28:00,60.6,34.0,30.13,NW,315,1.7,11.8,37,0.00,,,0.00,WUHU21636XXSP,2013-10-16 22:28:00,
2013-10-16 17:41:00,60.6,34.7,30.13,NW,315,0.0,7.8,38,0.00,,,0.00,WUHU21636XXSP,2013-10-16 22:41:00,
2013-10-16 17:53:00,59.4,32.9,30.13,WSW,247,0.0,3.5,37,0.00,,,0.00,WUHU21636XXSP,2013-10-16 22:53:00,
2013-10-16 18:05:00,57.9,32.2,30.12,West,270,0.0,5.5,38,0.00,,,0.00,WUHU21636XXSP,2013-10-16 23:05:00,
2013-10-16 18:18:00,58.3,33.3,30.12,West,270,0.0,3.1,39,0.00,,,0.00,WUHU21636XXSP,2013-10-16 23:18:00,
2013-10-16 18:30:00,58.5,34.2,30.11,WNW,292,0.0,0.2,40,0.00,,,0.00,WUHU21636XXSP,2013-10-16 23:30:00,
2013-10-16 18:43:00,57.9,34.2,30.12,WNW,292,0.0,0.0,41,0.00,,,0.00,WUHU21636XXSP,2013-10-16 23:43:00,
2013-10-16 18:55:00,57.0,34.5,30.12,WNW,292,0.0,0.0,43,0.00,,,0.00,WUHU21636XXSP,2013-10-16 23:55:00,
2013-10-16 19:07:00,56.1,34.3,30.12,WNW,292,0.0,0.0,44,0.00,,,0.00,WUHU21636XXSP,2013-10-17 00:07:00,
2013-10-16 19:20:00,55.6,34.3,30.12,WNW,292,0.0,0.0,45,0.00,,,0.00,WUHU21636XXSP,2013-10-17 00:20:00,
2013-10-16 19:32:00,54.7,33.4,30.12,WNW,292,0.0,0.0,45,0.00,,,0.00,WUHU21636XXSP,2013-10-17 00:32:00,
2013-10-16 19:44:00,54.1,34.2,30.12,WNW,292,0.0,0.0,47,0.00,,,0.00,WUHU21636XXSP,2013-10-17 00:44:00,
2013-10-16 19:57:00,53.4,33.4,30.12,WNW,292,0.0,0.0,47,0.00,,,0.00,WUHU21636XXSP,2013-10-17 00:57:00,
2013-10-16 20:09:00,53.1,33.8,30.12,WNW,292,0.0,0.0,48,0.00,,,0.00,WUHU21636XXSP,2013-10-17 01:09:00,
2013-10-16 20:22:00,52.0,33.3,30.12,North,0,3.3,3.3,49,0.00,,,0.00,WUHU21636XXSP,2013-10-17 01:22:00,
2013-10-16 20:34:00,51.1,33.1,30.13,SSW,202,0.0,3.5,50,0.00,,,0.00,WUHU21636XXSP,2013-10-17 01:34:00,
2013-10-16 20:46:00,50.5,33.4,30.13,SSW,202,0.0,0.0,52,0.00,,,0.00,WUHU21636XXSP,2013-10-17 01:46:00,
2013-10-16 20:59:00,50.4,33.8,30.13,SSW,202,0.0,0.0,53,0.00,,,0.00,WUHU21636XXSP,2013-10-17 01:59:00,
2013-10-16 21:11:00,49.8,32.9,30.13,SSW,202,0.0,0.0,53,0.00,,,0.00,WUHU21636XXSP,2013-10-17 02:11:00,
2013-10-16 21:23:00,49.6,33.1,30.14,SSW,202,0.0,0.0,54,0.00,,,0.00,WUHU21636XXSP,2013-10-17 02:23:00,
2013-10-16 21:36:00,49.1,33.1,30.13,SSW,202,0.0,0.0,54,0.00,,,0.00,WUHU21636XXSP,2013-10-17 02:36:00,
2013-10-16 21:48:00,48.7,33.1,30.13,SSW,202,0.0,0.0,55,0.00,,,0.00,WUHU21636XXSP,2013-10-17 02:48:00,
2013-10-16 22:00:00,48.4,33.3,30.13,SSW,202,0.0,0.0,56,0.00,,,0.00,WUHU21636XXSP,2013-10-17 03:00:00,
2013-10-16 22:13:00,47.8,33.3,30.14,WSW,247,0.0,0.0,57,0.00,,,0.00,WUHU21636XXSP,2013-10-17 03:13:00,
2013-10-16 22:25:00,46.9,33.3,30.14,WSW,247,0.0,0.8,59,0.00,,,0.00,WUHU21636XXSP,2013-10-17 03:25:00,
2013-10-16 22:38:00,46.0,33.3,30.14,West,270,0.6,1.5,61,0.00,,,0.00,WUHU21636XXSP,2013-10-17 03:38:00,
2013-10-16 22:50:00,45.5,33.1,30.14,West,270,0.8,1.3,63,0.00,,,0.00,WUHU21636XXSP,2013-10-17 03:50:00,
2013-10-16 23:02:00,45.0,33.4,30.14,West,270,0.0,0.4,64,0.00,,,0.00,WUHU21636XXSP,2013-10-17 04:02:00,
2013-10-16 23:15:00,44.8,33.3,30.14,West,270,0.0,0.0,64,0.00,,,0.00,WUHU21636XXSP,2013-10-17 04:15:00,
2013-10-16 23:27:00,44.8,33.3,30.14,West,270,0.0,0.0,64,0.00,,,0.00,WUHU21636XXSP,2013-10-17 04:27:00,
2013-10-16 23:39:00,44.2,32.7,30.13,West,270,0.0,0.0,64,0.00,,,0.00,WUHU21636XXSP,2013-10-17 04:39:00,
2013-10-16 23:52:00,43.9,32.7,30.13,West,270,0.0,0.0,65,0.00,,,0.00,WUHU21636XXSP,2013-10-17 04:52:00,